M I D A S
Marine Information and Data Acquisition System
Tripno 475 of the Zeeleeuw from 2003-01-17 07:44:18 to 2003-01-17 12:53:44
Back to CruiseResearch ActivitiesStationsMapUnderway DataData graphs

EquipmentUnitsComments
TimeDGPSUTC
LatitudeDGPSDM.mWGS84
LongitudeDGPSDM.mWGS84
SpeedMeteo Stationm/sRelative wind speed
DirectionMeteo StationdegRelative wind direction
TemperatureMeteo Stationdeg CelciusAir temperature
PressureMeteo StationPaAtmospheric pressure
HumidityMeteo Station%Relative humidity
Missing or incorrect values are displayed as -999
Metereological data collected by the RV Zeeleeuw from 2003-01-17 07:44:18 to 2003-01-17 12:53:44
Time Latitude Longitude Speed Direction Temperature Pressure Humidity
2003-01-17 07:45 51°13.665 2°55.816 9.2 116 2.1 102050 90
2003-01-17 07:46 51°13.681 2°55.777 4.2 77 2.1 102040 90
2003-01-17 07:47 51°13.734 2°55.766 5.3 352 2.1 102060 90
2003-01-17 07:48 51°13.787 2°55.674 2.6   2.1 102070 90
2003-01-17 07:49 51°13.864 2°55.58 5.3 340 2.1 102050 90
2003-01-17 07:50 51°13.959 2°55.527 1.7 324 2.2 102050 90
2003-01-17 07:51 51°14.06 2°55.466 2.4 355 2.2 102050 90
2003-01-17 07:52 51°14.164 2°55.378 4.3 345 2.2 102040 90
2003-01-17 07:53 51°14.257 2°55.259 2.4 9 2.2 102050 90
2003-01-17 07:54 51°14.343 2°55.1 7.3 290 2.2 102040 90
2003-01-17 07:55 51°14.441 2°54.893 5.1 316 2.2 102040 90
2003-01-17 07:56 51°14.546 2°54.665 6.1 288 2.3 102060 89
2003-01-17 07:57 51°14.664 2°54.434 3.6 323 2.3 102010 89
2003-01-17 07:58 51°14.775 2°54.181 15.8 299 2.3 102020 90
2003-01-17 07:59 51°14.856 2°53.905 10.1 296 2.4 102010 89
2003-01-17 08:00 51°14.937 2°53.619 13 294 2.4 102000 90
2003-01-17 08:01 51°15.024 2°53.328 12.3 300 2.4 102000 90
2003-01-17 08:02 51°15.099 2°53.051 14.5 299 2.5 102000 90
2003-01-17 08:03 51°15.179 2°52.762 12.9 293 2.4 102010 89
2003-01-17 08:04 51°15.256 2°52.471 15.2 292 2.5 102010 90
2003-01-17 08:05 51°15.334 2°52.175 13 301 2.5 102000 90
2003-01-17 08:06 51°15.417 2°51.894 15.1 285 2.5 102000 90
2003-01-17 08:07 51°15.386 2°51.594 17.8 265 2.5 101980 90
2003-01-17 08:08 51°15.306 2°51.315 17.8 269 2.5 101960 90
2003-01-17 08:09 51°15.234 2°51.027 17 272 2.5 101960 90
2003-01-17 08:10 51°15.175 2°50.825 15.3 266 2.5 101960 90
2003-01-17 08:11 51°15.118 2°50.667 12.1 270 2.5 101980 90
2003-01-17 08:12 51°15.078 2°50.506 14.5 275 2.5 101970 90
2003-01-17 08:13 51°15.027 2°50.375 15.6 249 2.4 101990 89
2003-01-17 08:14 51°14.981 2°50.309 14.8 241 2.5 102000 90
2003-01-17 08:15 51°14.951 2°50.264 14.3 250 2.5 102010 90
2003-01-17 08:16 51°14.93 2°50.234 14.7 239 2.6 102020 90
2003-01-17 08:17 51°14.916 2°50.222 11.9 221 2.5 102020 89
2003-01-17 08:18 51°14.907 2°50.223 12.8 192 2.5 101990 89
2003-01-17 08:19 51°14.903 2°50.234 9.6 188 2.4 101990 89
2003-01-17 08:20 51°14.891 2°50.249 12.7 196 2.5 102010 90
2003-01-17 08:21 51°14.865 2°50.257 11.6 224 2.4 101990 89
2003-01-17 08:22 51°14.838 2°50.244 13.3 235 2.4 101990 89
2003-01-17 08:23 51°14.814 2°50.216 12.2 246 2.5 101990 89
2003-01-17 08:24 51°14.792 2°50.196 11 221 2.5 102010 89
2003-01-17 08:25 51°14.772 2°50.197 13.5 211 2.5 101990 89
2003-01-17 08:26 51°14.748 2°50.197 13.2 230 2.5 102000 89
2003-01-17 08:27 51°14.712 2°50.183 13.8 242 2.5 102010 89
2003-01-17 08:28 51°14.677 2°50.148 11.6 254 2.5 102000 89
2003-01-17 08:29 51°14.647 2°50.1 13.6 262 2.5 102000 89
2003-01-17 08:30 51°14.624 2°50.04 12.9 274 2.5 101990 89
2003-01-17 08:31 51°14.603 2°49.976 13.3 282 2.5 101970 89
2003-01-17 08:32 51°14.591 2°49.91 11.7 285 2.5 101980 89
2003-01-17 08:33 51°14.583 2°49.832 13.5 299 2.6 101990 89
2003-01-17 08:34 51°14.583 2°49.755 13.1 298 2.6 101980 89
2003-01-17 08:35 51°14.589 2°49.683 9.1 319 2.6 101970 89
2003-01-17 08:36 51°14.597 2°49.62 5.3 322 2.6 101980 89
2003-01-17 08:37 51°14.61 2°49.553 4.4 317 2.6 101980 89
2003-01-17 08:38 51°14.63 2°49.486 1.5 325 2.7 101980 89
2003-01-17 08:39 51°14.655 2°49.421 3.2 333 2.7 101970 89
2003-01-17 08:40 51°14.681 2°49.36 2.9 334 2.6 101970 89
2003-01-17 08:41 51°14.711 2°49.306 13 2 2.7 101960 89
2003-01-17 08:42 51°14.747 2°49.259 10.8 358 2.7 101960 89
2003-01-17 08:43 51°14.788 2°49.222 13 7 2.6 101950 89
2003-01-17 08:44 51°14.836 2°49.201 10.5 23 2.6 101960 89
2003-01-17 08:45 51°14.887 2°49.209 10.9 72 2.6 101990 89
2003-01-17 08:46 51°14.93 2°49.255 11.6 91 2.7 102000 89
2003-01-17 08:47 51°14.959 2°49.311 11.9 114 2.7 101980 89
2003-01-17 08:48 51°14.981 2°49.371 11 113 2.7 101980 89
2003-01-17 08:49 51°15 2°49.434 10.1 131 2.7 101980 89
2003-01-17 08:50 51°15.017 2°49.5 10.2 123 2.7 101970 89
2003-01-17 08:51 51°15.035 2°49.57 10.7 124 2.8 101980 89
2003-01-17 08:52 51°15.051 2°49.638 9.9 122 2.8 101970 89
2003-01-17 08:53 51°15.068 2°49.703 11.1 116 2.8 101990 89
2003-01-17 08:54 51°15.086 2°49.771 12.7 128 2.7 101970 88
2003-01-17 08:55 51°15.103 2°49.839 12.9 131 2.6 101970 88
2003-01-17 08:56 51°15.118 2°49.908 10.7 129 2.6 101970 88
2003-01-17 08:57 51°15.132 2°49.979 10 127 2.7 101970 88
2003-01-17 08:58 51°15.146 2°50.049 11.7 133 2.7 101980 88
2003-01-17 08:59 51°15.16 2°50.115 11.7 127 2.7 101970 88
2003-01-17 09:00 51°15.17 2°50.171 11 145 2.7 101950 88
2003-01-17 09:01 51°15.178 2°50.226 12.2 141 2.8 101950 88
2003-01-17 09:02 51°15.181 2°50.279 13.4 158 2.8 101930 88
2003-01-17 09:03 51°15.187 2°50.318 14.7 162 2.7 101940 88
2003-01-17 09:04 51°15.194 2°50.346 11.5 165 2.7 101940 87
2003-01-17 09:05 51°15.202 2°50.37 15.4 164 2.7 101950 88
2003-01-17 09:06 51°15.213 2°50.39 15.3 166 2.7 101930 88
2003-01-17 09:07 51°15.228 2°50.408 11.2 150 2.7 101920 88
2003-01-17 09:08 51°15.243 2°50.425 14.1 140 2.7 101950 88
2003-01-17 09:09 51°15.258 2°50.446 13.9 153 2.7 101920 88
2003-01-17 09:10 51°15.272 2°50.469 13.1 156 2.7 101930 88
2003-01-17 09:11 51°15.287 2°50.492 11.2 159 2.7 101940 87
2003-01-17 09:12 51°15.302 2°50.515 9.4 152 2.7 101940 87
2003-01-17 09:13 51°15.316 2°50.535 11.3 158 2.7 101940 88
2003-01-17 09:14 51°15.33 2°50.558 10.4 149 2.7 101930 88
2003-01-17 09:15 51°15.346 2°50.583 11.7 151 2.8 101930 88
2003-01-17 09:16 51°15.361 2°50.609 10.2 152 2.8 101920 88
2003-01-17 09:17 51°15.376 2°50.635 12.6 157 2.8 101930 88
2003-01-17 09:18 51°15.378 2°50.686 13.6 198 2.8 101910 88
2003-01-17 09:19 51°15.355 2°50.73 16.4 226 2.7 101850 87
2003-01-17 09:20 51°15.322 2°50.754 15.9 238 2.7 101880 87
2003-01-17 09:21 51°15.302 2°50.771 16.5 235 2.7 101870 87
2003-01-17 09:22 51°15.293 2°50.792 13.9 229 2.7 101870 87
2003-01-17 09:23 51°15.287 2°50.812 16.1 236 2.7 101870 87
2003-01-17 09:24 51°15.262 2°50.827 17.1 239 2.6 101860 87
2003-01-17 09:25 51°15.22 2°50.829 18.8 243 2.7 101850 87
2003-01-17 09:26 51°15.175 2°50.817 17.1 252 2.6 101850 86
2003-01-17 09:27 51°15.13 2°50.802 16.1 252 2.7 101860 87
2003-01-17 09:28 51°15.084 2°50.774 16.2 265 2.7 101860 86
2003-01-17 09:29 51°15.044 2°50.738 14 258 2.7 101860 86
2003-01-17 09:30 51°15.002 2°50.696 17.1 264 2.7 101860 86
2003-01-17 09:31 51°14.966 2°50.652 13.3 266 2.6 101850 86
2003-01-17 09:32 51°14.934 2°50.6 15.3 280 2.7 101850 86
2003-01-17 09:33 51°14.905 2°50.535 14.3 278 2.7 101850 86
2003-01-17 09:34 51°14.883 2°50.468 16 284 2.6 101850 86
2003-01-17 09:35 51°14.864 2°50.392 14.7 287 2.6 101830 86
2003-01-17 09:36 51°14.859 2°50.322 14.9 296 2.7 101830 86
2003-01-17 09:37 51°14.865 2°50.254 17.3 304 2.7 101830 86
2003-01-17 09:38 51°14.881 2°50.187 5.5 315 2.6 101840 86
2003-01-17 09:39 51°14.908 2°50.118 3.2 319 2.7 101860 86
2003-01-17 09:40 51°14.944 2°50.06 3.3 330 2.8 101870 87
2003-01-17 09:41 51°14.989 2°50.017 9.3 3 2.7 101860 87
2003-01-17 09:42 51°15.037 2°49.99 9.6 7 2.7 101870 87
2003-01-17 09:43 51°15.085 2°49.973 11.5 10 2.7 101860 87
2003-01-17 09:44 51°15.135 2°49.961 13.5 354 2.6 101880 87
2003-01-17 09:45 51°15.184 2°49.951 9.8 7 2.6 101880 87
2003-01-17 09:46 51°15.233 2°49.945 9.8 15 2.6 101870 87
2003-01-17 09:47 51°15.285 2°49.953 9.5 23 2.5 101880 86
2003-01-17 09:48 51°15.336 2°49.983 8.4 45 2.5 101890 86
2003-01-17 09:49 51°15.381 2°50.041 11.6 94 2.6 101910 87
2003-01-17 09:50 51°15.411 2°50.112 12.5 123 2.6 101910 86
2003-01-17 09:51 51°15.432 2°50.182 11.2 145 2.6 101900 86
2003-01-17 09:52 51°15.448 2°50.252 14.4 156 2.7 101890 87
2003-01-17 09:53 51°15.463 2°50.32 9.6 152 2.7 101890 86
2003-01-17 09:54 51°15.475 2°50.386 13.8 175 2.7 101890 86
2003-01-17 09:55 51°15.48 2°50.458 12.9 180 2.7 101870 86
2003-01-17 09:56 51°15.481 2°50.531 13.8 198 2.7 101820 86
2003-01-17 09:57 51°15.474 2°50.597 15.6 222 2.7 101820 86
2003-01-17 09:58 51°15.45 2°50.631 19.1 256 2.7 101830 86
2003-01-17 09:59 51°15.412 2°50.607 16.1 264 2.8 101830 86
2003-01-17 10:00 51°15.378 2°50.553 17.5 280 2.8 101800 86
2003-01-17 10:01 51°15.367 2°50.481 19.3 298 2.8 101820 86
2003-01-17 10:02 51°15.378 2°50.413 11.8 303 2.8 101820 85
2003-01-17 10:03 51°15.407 2°50.337 3.7 316 2.8 101830 85
2003-01-17 10:04 51°15.449 2°50.294 2.8 336 2.8 101840 85
2003-01-17 10:05 51°15.49 2°50.263 8.7 336 2.9 101840 86
2003-01-17 10:06 51°15.534 2°50.238 3.6 336 2.9 101840 85
2003-01-17 10:07 51°15.575 2°50.216 3.6 347 2.9 101850 85
2003-01-17 10:08 51°15.619 2°50.201 3.4 331 2.9 101840 85
2003-01-17 10:09 51°15.666 2°50.184 8.7 353 2.9 101850 85
2003-01-17 10:10 51°15.717 2°50.173 11.7 9 2.9 101840 85
2003-01-17 10:11 51°15.776 2°50.182 12.2 16 2.8 101850 85
2003-01-17 10:12 51°15.831 2°50.21 10.3 31 2.8 101860 85
2003-01-17 10:13 51°15.881 2°50.251 11.6 61 2.9 101880 86
2003-01-17 10:14 51°15.928 2°50.315 10.8 85 2.9 101900 85
2003-01-17 10:15 51°15.967 2°50.399 11.9 111 3 101870 85
2003-01-17 10:16 51°15.993 2°50.495 10.6 133 2.9 101880 85
2003-01-17 10:17 51°16.009 2°50.589 12.2 149 3 101870 85
2003-01-17 10:18 51°16.021 2°50.686 12.9 155 3 101850 85
2003-01-17 10:19 51°16.029 2°50.784 13.4 162 3 101870 85
2003-01-17 10:20 51°16.033 2°50.876 13.1 160 3 101850 85
2003-01-17 10:21 51°16.038 2°50.965 13.8 167 3 101840 85
2003-01-17 10:22 51°16.041 2°51.052 10.6 173 3 101840 85
2003-01-17 10:23 51°16.042 2°51.139 12.9 175 3 101860 85
2003-01-17 10:24 51°16.045 2°51.218 10.9 181 3 101860 84
2003-01-17 10:25 51°16.051 2°51.287 11.4 181 3 101830 84
2003-01-17 10:26 51°16.065 2°51.348 10.3 177 3 101850 85
2003-01-17 10:27 51°16.08 2°51.411 10.7 183 3 101850 85
2003-01-17 10:28 51°16.068 2°51.476 13.6 225 3.1 101800 85
2003-01-17 10:29 51°16.045 2°51.471 15.9 276 3.1 101820 85
2003-01-17 10:30 51°16.01 2°51.407 12.5 251 3.1 101810 84
2003-01-17 10:31 51°15.955 2°51.321 15.5 264 3.2 101800 84
2003-01-17 10:32 51°15.897 2°51.23 14.6 250 3.2 101800 84
2003-01-17 10:33 51°15.83 2°51.161 17.9 254 3.3 101810 84
2003-01-17 10:34 51°15.768 2°51.069 14.6 268 3.2 101800 83
2003-01-17 10:35 51°15.716 2°50.978 15.2 252 3.2 101780 84
2003-01-17 10:36 51°15.647 2°50.871 16.8 255 3.3 101800 84
2003-01-17 10:37 51°15.568 2°50.743 14 254 3.3 101790 84
2003-01-17 10:38 51°15.483 2°50.601 15.8 257 3.3 101790 84
2003-01-17 10:39 51°15.397 2°50.458 17.5 259 3.3 101780 83
2003-01-17 10:40 51°15.312 2°50.319 13.9 251 3.3 101780 83
2003-01-17 10:41 51°15.228 2°50.182 15.2 254 3.3 101780 83
2003-01-17 10:42 51°15.144 2°50.04 15.6 258 3.4 101780 83
2003-01-17 10:43 51°15.063 2°49.9 15.7 254 3.3 101770 83
2003-01-17 10:44 51°14.977 2°49.754 16.2 252 3.4 101790 83
2003-01-17 10:45 51°14.888 2°49.609 16.1 255 3.4 101780 83
2003-01-17 10:46 51°14.795 2°49.472 13.7 253 3.4 101780 83
2003-01-17 10:47 51°14.704 2°49.334 16.2 258 3.5 101790 83
2003-01-17 10:48 51°14.624 2°49.215 12.3 256 3.5 101760 83
2003-01-17 10:49 51°14.581 2°49.163 12 249 3.5 101780 83
2003-01-17 10:50 51°14.562 2°49.132 13.8 282 3.5 101790 83
2003-01-17 10:51 51°14.578 2°49.089 4.8 320 3.5 101780 83
2003-01-17 10:52 51°14.618 2°49.048 3 309 3.5 101780 83
2003-01-17 10:53 51°14.675 2°49.021 8.7 7 3.5 101790 83
2003-01-17 10:54 51°14.748 2°49.023 9.3 21 3.5 101800 83
2003-01-17 10:55 51°14.827 2°49.067 8.4 64 3.5 101790 83
2003-01-17 10:56 51°14.888 2°49.164 10 108 3.5 101810 83
2003-01-17 10:57 51°14.917 2°49.291 12.4 152 3.5 101790 83
2003-01-17 10:58 51°14.923 2°49.404 10.2 157 3.5 101770 83
2003-01-17 10:59 51°14.917 2°49.512 10.8 189 3.6 101760 83
2003-01-17 11:00 51°14.905 2°49.596 12.9 204 3.5 101740 83
2003-01-17 11:01 51°14.89 2°49.665 13.3 214 3.5 101730 83
2003-01-17 11:02 51°14.874 2°49.716 13.6 230 3.5 101710 82
2003-01-17 11:03 51°14.86 2°49.746 13.1 249 3.5 101730 82
2003-01-17 11:04 51°14.858 2°49.743 11.5 307 3.6 101710 82
2003-01-17 11:05 51°14.879 2°49.715 8 299 3.6 101710 82
2003-01-17 11:06 51°14.915 2°49.677 1.8 331 3.7 101720 82
2003-01-17 11:07 51°14.965 2°49.641 4.3 351 3.7 101720 82
2003-01-17 11:08 51°15.031 2°49.62 11 357 3.6 101730 82
2003-01-17 11:09 51°15.104 2°49.615 10.2 13 3.6 101740 82
2003-01-17 11:10 51°15.183 2°49.643 8.8 48 3.7 101730 83
2003-01-17 11:11 51°15.255 2°49.727 10.3 102 3.8 101750 83
2003-01-17 11:12 51°15.294 2°49.848 9.6 131 3.7 101730 82
2003-01-17 11:13 51°15.308 2°49.969 11.7 161 3.7 101730 82
2003-01-17 11:14 51°15.304 2°50.075 10.3 179 3.7 101710 82
2003-01-17 11:15 51°15.293 2°50.165 11.9 204 3.7 101680 83
2003-01-17 11:16 51°15.277 2°50.242 14.9 213 3.7 101660 82
2003-01-17 11:17 51°15.262 2°50.297 13.1 231 3.6 101650 82
2003-01-17 11:18 51°15.247 2°50.33 12.4 258 3.7 101680 82
2003-01-17 11:19 51°15.246 2°50.329 14.7 298 3.7 101670 82
2003-01-17 11:20 51°15.267 2°50.301 7 305 3.8 101670 82
2003-01-17 11:21 51°15.303 2°50.268 2.1 340 3.8 101690 82
2003-01-17 11:22 51°15.349 2°50.238 4.9 344 3.8 101700 83
2003-01-17 11:23 51°15.412 2°50.22 7.3 9 3.7 101690 82
2003-01-17 11:24 51°15.487 2°50.227 5.7 27 3.8 101710 82
2003-01-17 11:25 51°15.562 2°50.282 9.4 74 3.9 101720 83
2003-01-17 11:26 51°15.618 2°50.388 11.6 124 3.9 101720 82
2003-01-17 11:27 51°15.644 2°50.507 10.4 152 3.9 101730 82
2003-01-17 11:28 51°15.647 2°50.628 12.2 176 3.9 101710 82
2003-01-17 11:29 51°15.639 2°50.73 11 180 3.9 101700 82
2003-01-17 11:30 51°15.623 2°50.81 12.7 216 3.9 101670 82
2003-01-17 11:31 51°15.596 2°50.868 14.9 224 3.9 101640 82
2003-01-17 11:32 51°15.558 2°50.861 13.7 273 3.8 101670 81
2003-01-17 11:33 51°15.52 2°50.797 16 258 3.9 101640 81
2003-01-17 11:34 51°15.437 2°50.712 18.2 250 3.9 101640 81
2003-01-17 11:35 51°15.342 2°50.608 19.7 257 4 101610 81
2003-01-17 11:36 51°15.266 2°50.464 16.9 263 4 101600 80
2003-01-17 11:37 51°15.177 2°50.316 18.1 261 4 101610 80
2003-01-17 11:38 51°15.084 2°50.177 18.5 266 4 101600 80
2003-01-17 11:39 51°15.004 2°50.025 19.6 262 4 101600 80
2003-01-17 11:40 51°14.929 2°49.858 17.8 267 4 101600 80
2003-01-17 11:41 51°14.846 2°49.706 17.6 261 4 101610 80
2003-01-17 11:42 51°14.768 2°49.535 16 268 4 101610 80
2003-01-17 11:43 51°14.703 2°49.369 16.4 272 4 101600 80
2003-01-17 11:44 51°14.657 2°49.316 15.4 241 4 101620 80
2003-01-17 11:45 51°14.632 2°49.332 13.8 228 4 101630 80
2003-01-17 11:46 51°14.621 2°49.375 13.5 223 4 101610 80
2003-01-17 11:47 51°14.613 2°49.415 14.6 220 4 101620 80
2003-01-17 11:48 51°14.573 2°49.434 14.4 254 4 101630 80
2003-01-17 11:49 51°14.528 2°49.406 14.6 259 4.1 101610 81
2003-01-17 11:50 51°14.484 2°49.373 15.9 256 4.1 101610 81
2003-01-17 11:51 51°14.442 2°49.335 16.3 260 4.1 101590 80
2003-01-17 11:52 51°14.409 2°49.291 18.2 256 4 101600 80
2003-01-17 11:53 51°14.378 2°49.245 17 262 4 101600 80
2003-01-17 11:54 51°14.351 2°49.191 15.8 271 4 101600 80
2003-01-17 11:55 51°14.328 2°49.137 16.9 270 4 101610 80
2003-01-17 11:56 51°14.303 2°49.081 13.7 266 4.1 101590 80
2003-01-17 11:57 51°14.28 2°49.029 16.3 265 4.1 101610 80
2003-01-17 11:58 51°14.256 2°48.968 14.6 268 4.1 101590 79
2003-01-17 11:59 51°14.232 2°48.901 12.4 263 4.1 101610 80
2003-01-17 12:00 51°14.214 2°48.826 14.1 280 4.1 101610 80
2003-01-17 12:01 51°14.21 2°48.747 13.5 289 4.1 101610 80
2003-01-17 12:02 51°14.21 2°48.669 11.8 284 4.1 101620 80
2003-01-17 12:03 51°14.227 2°48.596 7.1 318 4.1 101610 80
2003-01-17 12:04 51°14.271 2°48.557 3.4 326 4.1 101630 80
2003-01-17 12:05 51°14.313 2°48.546 11.1 348 4 101600 80
2003-01-17 12:06 51°14.351 2°48.548 2.2 312 4 101610 80
2003-01-17 12:07 51°14.382 2°48.552 2.4 335 4 101610 80
2003-01-17 12:08 51°14.449 2°48.524 6.9 12 4 101620 80
2003-01-17 12:09 51°14.532 2°48.547 9.9 56 4 101630 80
2003-01-17 12:10 51°14.599 2°48.615 9.5 97 4 101640 80
2003-01-17 12:11 51°14.643 2°48.706 9.8 118 4 101620 81
2003-01-17 12:12 51°14.671 2°48.809 9.7 134 4.1 101620 81
2003-01-17 12:13 51°14.694 2°48.909 9.3 141 4.1 101630 81
2003-01-17 12:14 51°14.712 2°49.008 12.2 161 4.1 101620 81
2003-01-17 12:15 51°14.726 2°49.108 9 149 4 101620 81
2003-01-17 12:16 51°14.739 2°49.212 10.8 146 4 101620 82
2003-01-17 12:17 51°14.755 2°49.319 14.2 151 3.9 101610 82
2003-01-17 12:18 51°14.775 2°49.42 11.8 137 3.9 101600 82
2003-01-17 12:19 51°14.792 2°49.513 11.5 142 3.9 101610 81
2003-01-17 12:20 51°14.808 2°49.608 11.1 148 3.8 101620 81
2003-01-17 12:21 51°14.822 2°49.701 10.7 146 3.8 101610 82
2003-01-17 12:22 51°14.841 2°49.793 11.2 142 3.8 101620 81
2003-01-17 12:23 51°14.857 2°49.89 12.6 146 3.8 101600 81
2003-01-17 12:24 51°14.877 2°49.991 11.4 137 3.9 101600 81
2003-01-17 12:25 51°14.901 2°50.096 9.8 134 3.8 101620 81
2003-01-17 12:26 51°14.924 2°50.201 12.1 135 3.9 101600 82
2003-01-17 12:27 51°14.95 2°50.3 10.9 130 3.9 101610 81
2003-01-17 12:28 51°14.975 2°50.399 12.2 137 3.9 101610 81
2003-01-17 12:29 51°14.997 2°50.499 11.3 133 3.8 101610 81
2003-01-17 12:30 51°15.014 2°50.598 9.3 144 3.8 101610 81
2003-01-17 12:31 51°15.03 2°50.697 10.9 144 3.9 101610 81
2003-01-17 12:32 51°15.048 2°50.795 10.8 143 3.9 101590 81
2003-01-17 12:33 51°15.063 2°50.89 11.8 147 3.9 101600 81
2003-01-17 12:34 51°15.074 2°50.987 11.4 174 3.8 101590 81
2003-01-17 12:35 51°15.075 2°51.069 11.4 179 3.8 101570 81
2003-01-17 12:36 51°15.078 2°51.144 10.6 186 3.8 101570 80
2003-01-17 12:37 51°15.085 2°51.206 9.5 190 3.8 101560 81
2003-01-17 12:38 51°15.1 2°51.255 8.7 187 3.9 101570 81
2003-01-17 12:39 51°15.119 2°51.301 9 188 3.9 101570 81
2003-01-17 12:40 51°15.134 2°51.364 13.1 165 3.9 101570 81
2003-01-17 12:41 51°15.123 2°51.552 11.8 177 3.9 101570 81
2003-01-17 12:42 51°15.09 2°51.856 16.7 174 3.9 101550 81
2003-01-17 12:43 51°15.056 2°52.184 14 176 3.8 101520 82
2003-01-17 12:44 51°15.019 2°52.511 14.6 179 3.8 101500 82
2003-01-17 12:45 51°14.979 2°52.833 14.7 174 3.8 101500 81
2003-01-17 12:46 51°14.938 2°53.154 15.5 176 3.8 101500 81
2003-01-17 12:47 51°14.886 2°53.467 14.5 174 3.8 101500 81
2003-01-17 12:48 51°14.788 2°53.743 13.1 191 3.8 101510 81
2003-01-17 12:49 51°14.697 2°54.03 11.4 184 3.8 101510 81
2003-01-17 12:50 51°14.616 2°54.327 11.7 189 3.8 101510 81
2003-01-17 12:51 51°14.536 2°54.592 13.4 195 3.8 101520 80
2003-01-17 12:52 51°14.446 2°54.825 10.2 191 3.8 101520 80
2003-01-17 12:53 51°14.352 2°55.06 8.7 198 3.8 101540 80